星链-33799 (STARLINK-33799)

导读

STARLINK-33799是美国SpaceX星链卫星互联网项目的卫星,于2025年4月4日发射升空。它是星链低轨卫星星座的组成部分,同批次发射的星链卫星延续了星座组网的推进节奏,这类卫星旨在为全球范围用户提供低延迟、高速率的宽带互联网服务,进一步扩充星链星座的全球覆盖与服务能力。

基本信息
目录编号:
63447
目录名称:
STARLINK-33799
国际标识:
2025-069Q
轨道中心:
EARTH
卫星名称:
星链-33799
卫星全名:
星链-33799 (STARLINK-33799)
卫星状态:
在轨 (已飞行519 天)
发射日期:
2025-04-04 UTC
国别 :
美国 (US)
星等 :
--
轨道信息
数据来源 国际轨道数据
星历时间: 2026-09-05T02:52:36+0800
14小时前
查看轨道信息
半长轴: 6840.802km
偏心率: 0.0001168
轨道倾角: 53.161°
近地点辐角 70.793°
升交点赤经 29.284°
平近点角 289.320°
近地点: 461.865km
远地点: 463.465km
周期: 93.847分钟
每日圈数: 15.34413
详细信息
固有亮度:
5
最大亮度:
2.5
卫星平台:
Starlink V1.0
覆盖范围:
全球
运营商:
太空探索技术公司
运营商所在国:
美国
制造商(研发单位):
太空探索技术公司
制造商所在国:
美国
使用方式:
暂无
卫星简介
Starlink 计划是 SpaceX 推出的全球卫星互联网项目,通过发射低轨道卫星,为全球尤其是偏远地区提供高速、低延迟的互联网服务。自 2019 年起,Starlink 已部署数千颗卫星,旨在缩小全球数字鸿沟,推动互联网普及。该项目还为军事、航空等行业提供通信支持,带来广泛经济效益。
2D轨道图
3D轨道图
轨道高度分析图
轨道倾角分析图
轨道综合分析图
查看轨道综合分析图
交会数据列表
事件ID 空间交会对象 最接近时刻(TCA) 交会距离 交会风险概率(CRP) 交会风险指数(CRI) 操作
CDM_260907-160806-344706-638321
2026-09-07T
16:08:52+0000
0.508 km
远距离
1.280478E-4 高风险 0.77
CDM_260906-094206-344706-387121
2026-09-06T
09:42:15+0000
1.876 km
极远距离
2.881959E-6 低风险 0.44
CDM_260907-174206-344706-638321
2026-09-07T
17:42:39+0000
2.599 km
极远距离
1.077201E-6 低风险 0.36